• en France
  • Liste des pays
  • À 7 jours
  • Température de l'eau
  • Carte satellitaire
  • Carte météo
  • Widgets météo
  • user-avatar
    Se connecter

    Météo par heure à Korhogo

    Ce jour, 27 Mai, Dimanche

    Heure Température Précipitation Vent Pression Humidité
    00:00 +27°C° 0,5 mm 3 m/s 725 mmHg 82%
    01:00 +27°C° 0 mm 3 m/s 725 mmHg 83%
    02:00 +26°C° 0 mm 3 m/s 725 mmHg 85%
    03:00 +26°C° 0 mm 3 m/s 725 mmHg 87%
    04:00 +26°C° 0 mm 3 m/s 725 mmHg 88%
    05:00 +25°C° 0 mm 3 m/s 725 mmHg 90%
    06:00 +25°C° 0 mm 2 m/s 725 mmHg 91%
    07:00 +26°C° 0 mm 3 m/s 726 mmHg 85%
    08:00 +28°C° 0 mm 3 m/s 726 mmHg 78%
    09:00 +29°C° 0 mm 3 m/s 727 mmHg 71%
    10:00 +31°C° 0 mm 3 m/s 726 mmHg 62%
    11:00 +35°C° 0 mm 3 m/s 726 mmHg 52%
    12:00 +37°C° 0 mm 3 m/s 726 mmHg 43%
    13:00 +38°C° 0 mm 2 m/s 725 mmHg 38%
    14:00 +40°C° 0 mm 2 m/s 724 mmHg 33%
    15:00 +41°C° 0 mm 2 m/s 724 mmHg 29%
    16:00 +40°C° 0 mm 2 m/s 724 mmHg 30%
    17:00 +39°C° 0 mm 2 m/s 723 mmHg 32%
    18:00 +38°C° 0 mm 2 m/s 723 mmHg 34%
    19:00 +36°C° 0,1 mm 3 m/s 724 mmHg 39%
    20:00 +35°C° 0,1 mm 3 m/s 724 mmHg 45%
    21:00 +33°C° 0,1 mm 4 m/s 725 mmHg 50%
    22:00 +32°C° 1 mm 4 m/s 725 mmHg 60%
    23:00 +29°C° 1 mm 4 m/s 725 mmHg 70%

    Demain, 28 Mai, Lundi

    Heure Température Précipitation Vent Pression Humidité
    00:00 +27°C° 1 mm 4 m/s 726 mmHg 80%
    01:00 +27°C° 0,7 mm 4 m/s 726 mmHg 82%
    02:00 +26°C° 0,7 mm 4 m/s 725 mmHg 84%
    03:00 +26°C° 0,7 mm 4 m/s 725 mmHg 85%
    04:00 +26°C° 1,4 mm 3 m/s 725 mmHg 86%
    05:00 +26°C° 1,4 mm 2 m/s 726 mmHg 87%
    06:00 +25°C° 1,4 mm 2 m/s 726 mmHg 87%
    07:00 +26°C° 2,3 mm 2 m/s 727 mmHg 87%
    08:00 +26°C° 2,3 mm 1 m/s 727 mmHg 87%
    09:00 +26°C° 2,3 mm 1 m/s 727 mmHg 87%
    10:00 +26°C° 2,2 mm 1 m/s 727 mmHg 84%
    11:00 +27°C° 2,2 mm 1 m/s 727 mmHg 82%
    12:00 +27°C° 2,2 mm 1 m/s 727 mmHg 80%
    13:00 +28°C° 0 mm 1 m/s 727 mmHg 73%
    14:00 +30°C° 0 mm 2 m/s 726 mmHg 66%
    15:00 +31°C° 0 mm 2 m/s 725 mmHg 59%
    16:00 +30°C° 0 mm 2 m/s 725 mmHg 60%
    17:00 +30°C° 0 mm 2 m/s 725 mmHg 61%
    18:00 +30°C° 0 mm 1 m/s 725 mmHg 63%
    19:00 +29°C° 0 mm 1 m/s 725 mmHg 66%
    20:00 +28°C° 0 mm 1 m/s 726 mmHg 70%
    21:00 +27°C° 0 mm 1 m/s 727 mmHg 74%
    22:00 +27°C° 0 mm 1 m/s 727 mmHg 76%
    23:00 +26°C° 0 mm 1 m/s 727 mmHg 78%

    Après-demain, 29 Mai, Mardi

    Heure Température Précipitation Vent Pression Humidité
    00:00 +26°C° 0 mm 2 m/s 727 mmHg 80%
    01:00 +25°C° 0 mm 1 m/s 726 mmHg 82%
    02:00 +25°C° 0 mm 1 m/s 726 mmHg 84%
    03:00 +25°C° 0 mm 1 m/s 726 mmHg 87%
    04:00 +24°C° 0 mm 1 m/s 726 mmHg 88%
    05:00 +24°C° 0 mm 1 m/s 726 mmHg 89%
    06:00 +24°C° 0 mm 1 m/s 727 mmHg 91%
    07:00 +26°C° 0 mm 1 m/s 727 mmHg 82%
    08:00 +28°C° 0 mm 1 m/s 728 mmHg 72%
    09:00 +30°C° 0 mm 2 m/s 729 mmHg 63%
    10:00 +32°C° 0 mm 2 m/s 728 mmHg 56%
    11:00 +35°C° 0 mm 2 m/s 728 mmHg 48%
    12:00 +36°C° 0 mm 2 m/s 727 mmHg 41%
    13:00 +38°C° 0 mm 2 m/s 726 mmHg 38%
    14:00 +39°C° 0 mm 1 m/s 725 mmHg 34%
    15:00 +40°C° 0 mm 1 m/s 725 mmHg 31%
    16:00 +37°C° 0 mm 1 m/s 724 mmHg 34%
    17:00 +36°C° 0 mm 1 m/s 724 mmHg 37%
    18:00 +36°C° 0 mm 2 m/s 724 mmHg 40%
    19:00 +34°C° 0 mm 2 m/s 724 mmHg 45%
    20:00 +32°C° 0 mm 2 m/s 725 mmHg 49%
    21:00 +31°C° 0 mm 2 m/s 726 mmHg 54%
    22:00 +30°C° 0 mm 2 m/s 725 mmHg 57%
    23:00 +29°C° 0 mm 3 m/s 725 mmHg 60%

    30 Mai, Mercredi

    Heure Température Précipitation Vent Pression Humidité
    00:00 +29°C° 0 mm 3 m/s 725 mmHg 63%
    01:00 +28°C° 0,5 mm 2 m/s 725 mmHg 69%
    02:00 +27°C° 0,5 mm 2 m/s 725 mmHg 74%
    03:00 +26°C° 0,5 mm 1 m/s 724 mmHg 80%
    04:00 +26°C° 0,1 mm 1 m/s 725 mmHg 81%
    05:00 +25°C° 0,1 mm 2 m/s 725 mmHg 83%
    06:00 +25°C° 0,1 mm 2 m/s 725 mmHg 84%
    07:00 +26°C° 0 mm 2 m/s 725 mmHg 81%
    08:00 +27°C° 0 mm 2 m/s 726 mmHg 78%
    09:00 +28°C° 0 mm 2 m/s 726 mmHg 75%
    10:00 +30°C° 0 mm 3 m/s 726 mmHg 67%
    11:00 +33°C° 0 mm 3 m/s 726 mmHg 58%
    12:00 +35°C° 0 mm 3 m/s 726 mmHg 50%
    13:00 +36°C° 0 mm 2 m/s 725 mmHg 46%
    14:00 +37°C° 0 mm 2 m/s 724 mmHg 41%
    15:00 +39°C° 0 mm 2 m/s 724 mmHg 36%
    16:00 +38°C° 0 mm 2 m/s 724 mmHg 38%
    17:00 +37°C° 0 mm 2 m/s 724 mmHg 40%
    18:00 +36°C° 0 mm 2 m/s 724 mmHg 42%
    19:00 +34°C° 0,6 mm 2 m/s 724 mmHg 50%
    20:00 +31°C° 0,6 mm 1 m/s 724 mmHg 58%
    21:00 +29°C° 0,6 mm 1 m/s 725 mmHg 66%
    22:00 +28°C° 0,3 mm 2 m/s 725 mmHg 70%
    23:00 +28°C° 0,3 mm 2 m/s 725 mmHg 74%

    31 Mai, Jeudi

    Heure Température Précipitation Vent Pression Humidité
    00:00 +27°C° 0,3 mm 2 m/s 725 mmHg 77%
    01:00 +27°C° 0 mm 3 m/s 724 mmHg 80%
    02:00 +26°C° 0 mm 3 m/s 724 mmHg 83%
    03:00 +26°C° 0 mm 3 m/s 724 mmHg 86%
    04:00 +26°C° 0 mm 4 m/s 724 mmHg 87%
    05:00 +26°C° 0 mm 4 m/s 725 mmHg 88%
    06:00 +25°C° 0 mm 4 m/s 725 mmHg 89%
    07:00 +26°C° 0 mm 4 m/s 726 mmHg 85%
    08:00 +27°C° 0 mm 3 m/s 726 mmHg 81%
    09:00 +28°C° 0 mm 3 m/s 727 mmHg 77%
    10:00 +29°C° 0 mm 3 m/s 727 mmHg 72%
    11:00 +30°C° 0 mm 3 m/s 726 mmHg 67%
    12:00 +32°C° 0 mm 4 m/s 726 mmHg 62%
    13:00 +34°C° 0 mm 3 m/s 725 mmHg 56%
    14:00 +35°C° 0 mm 3 m/s 725 mmHg 51%
    15:00 +37°C° 0 mm 3 m/s 724 mmHg 45%
    16:00 +36°C° 0 mm 3 m/s 724 mmHg 47%
    17:00 +36°C° 0 mm 2 m/s 724 mmHg 49%
    18:00 +35°C° 0 mm 2 m/s 725 mmHg 50%
    19:00 +32°C° 0,3 mm 2 m/s 725 mmHg 58%
    20:00 +30°C° 0,3 mm 2 m/s 726 mmHg 65%
    21:00 +29°C° 0,3 mm 2 m/s 726 mmHg 73%
    22:00 +28°C° 0,1 mm 2 m/s 726 mmHg 76%
    23:00 +28°C° 0,1 mm 2 m/s 726 mmHg 78%

    1 Juin, Vendredi

    Heure Température Précipitation Vent Pression Humidité
    00:00 +27°C° 0,1 mm 2 m/s 726 mmHg 81%
    01:00 +27°C° 0,3 mm 2 m/s 726 mmHg 84%
    02:00 +26°C° 0,3 mm 2 m/s 725 mmHg 86%
    03:00 +26°C° 0,3 mm 3 m/s 725 mmHg 89%
    04:00 +25°C° 0 mm 2 m/s 725 mmHg 90%
    05:00 +25°C° 0 mm 2 m/s 726 mmHg 91%
    06:00 +25°C° 0 mm 2 m/s 727 mmHg 93%
    07:00 +26°C° 0 mm 2 m/s 727 mmHg 87%
    08:00 +27°C° 0 mm 3 m/s 727 mmHg 80%
    09:00 +29°C° 0 mm 3 m/s 727 mmHg 74%
    10:00 +31°C° 0 mm 3 m/s 727 mmHg 63%
    11:00 +35°C° 0 mm 2 m/s 727 mmHg 52%
    12:00 +38°C° 0 mm 2 m/s 726 mmHg 41%
    13:00 +39°C° 0 mm 2 m/s 726 mmHg 37%
    14:00 +40°C° 0 mm 2 m/s 725 mmHg 33%
    15:00 +40°C° 0 mm 2 m/s 724 mmHg 29%
    16:00 +39°C° 0 mm 2 m/s 724 mmHg 31%
    17:00 +38°C° 0 mm 2 m/s 725 mmHg 34%
    18:00 +36°C° 0 mm 1 m/s 725 mmHg 36%
    19:00 +36°C° 0 mm 2 m/s 725 mmHg 40%
    20:00 +35°C° 0 mm 2 m/s 726 mmHg 44%
    21:00 +32°C° 0 mm 2 m/s 726 mmHg 48%
    22:00 +31°C° 0,4 mm 2 m/s 726 mmHg 57%
    23:00 +29°C° 0,4 mm 2 m/s 726 mmHg 66%
    Voir plus